Back to catalog

STARLINK-3079

AliveCommunicationsVLEO
NORAD 49433·PAYLOAD·🇺🇸 United States

Launched Nov 13, 2021 from Cape Canaveral Space Force Station

Loading…

Next Passes (next 24 hours)

TLE

FreshSource: CelesTrak SupGP

Epoch: Sep 14, 2026, 20:28 UTC

1 49433C 21104AB  26257.85326389  .00647860  00000+0  19241-1 0  2572
2 49433  53.1594  76.3101 0001218  81.0279 232.4860 15.33904676    19

Track STARLINK-3079 in real time with AllMySat

Download on the App Store